Time,TemperatureF,DewpointF,PressureIn,WindDirection,WindDirectionDegrees,WindSpeedMPH,WindSpeedGustMPH,Humidity,HourlyPrecipIn,Conditions,Clouds,dailyrainin,SoftwareType,DateUTC
2013-08-13 00:00:00,67.6,64.9,30.10,NNE,15,0.0,0.0,91,0.00,RA,,0.00,WeatherDisplay:10.37,2013-08-13 05:00:00,
2013-08-13 00:05:00,68.0,65.6,30.10,North,0,0.0,0.0,92,0.00,RA,,0.00,WeatherDisplay:10.37,2013-08-13 05:05:00,
2013-08-13 00:10:00,67.8,65.4,30.10,North,0,0.0,0.0,92,0.00,CLR,,0.00,WeatherDisplay:10.37,2013-08-13 05:10:00,
2013-08-13 00:15:00,68.2,65.8,30.10,North,0,0.0,0.0,92,0.00,CLR,,0.00,WeatherDisplay:10.37,2013-08-13 05:15:00,
2013-08-13 00:20:00,68.2,65.8,30.10,North,0,0.0,0.0,92,0.00,CLR,,0.00,WeatherDisplay:10.37,2013-08-13 05:20:00,
2013-08-13 00:25:00,68.2,65.8,30.10,North,0,0.0,0.0,92,0.00,CLR,,0.00,WeatherDisplay:10.37,2013-08-13 05:25:00,
2013-08-13 00:30:00,68.2,65.8,30.10,North,0,0.0,0.0,92,0.00,CLR,,0.00,WeatherDisplay:10.37,2013-08-13 05:30:00,
2013-08-13 00:35:00,68.2,65.8,30.10,North,0,0.0,0.0,92,0.00,CLR,,0.00,WeatherDisplay:10.37,2013-08-13 05:35:00,
2013-08-13 00:40:00,68.2,65.8,30.10,North,0,0.0,0.0,92,0.00,CLR,,0.00,WeatherDisplay:10.37,2013-08-13 05:40:00,
2013-08-13 00:45:00,68.0,65.6,30.10,North,0,0.0,0.0,92,0.00,CLR,,0.00,WeatherDisplay:10.37,2013-08-13 05:45:00,
2013-08-13 00:50:00,67.8,65.4,30.10,North,0,0.0,0.0,92,0.00,CLR,,0.00,WeatherDisplay:10.37,2013-08-13 05:50:00,
2013-08-13 00:55:00,67.8,65.7,30.10,North,0,0.0,0.0,93,0.00,CLR,,0.00,WeatherDisplay:10.37,2013-08-13 05:55:00,
2013-08-13 01:00:00,67.8,65.7,30.10,North,0,0.0,0.0,93,0.00,CLR,,0.00,WeatherDisplay:10.37,2013-08-13 06:00:00,
2013-08-13 01:05:00,67.6,65.5,30.10,North,0,0.0,0.0,93,0.00,CLR,,0.00,WeatherDisplay:10.37,2013-08-13 06:05:00,
2013-08-13 01:10:00,67.6,65.5,30.10,North,0,0.0,0.0,93,0.00,CLR,,0.00,WeatherDisplay:10.37,2013-08-13 06:10:00,
2013-08-13 01:15:00,67.8,65.7,30.10,North,0,0.0,0.0,93,0.00,CLR,,0.00,WeatherDisplay:10.37,2013-08-13 06:15:00,
2013-08-13 01:20:00,67.8,65.7,30.10,North,0,0.0,0.0,93,0.00,CLR,,0.00,WeatherDisplay:10.37,2013-08-13 06:20:00,
2013-08-13 01:25:00,67.8,65.7,30.10,North,0,0.0,0.0,93,0.00,CLR,,0.00,WeatherDisplay:10.37,2013-08-13 06:25:00,
2013-08-13 01:30:00,67.8,65.7,30.10,North,0,0.0,0.0,93,0.00,CLR,,0.00,WeatherDisplay:10.37,2013-08-13 06:30:00,
2013-08-13 01:35:00,68.0,65.9,30.10,North,0,2.0,2.0,93,0.00,CLR,,0.00,WeatherDisplay:10.37,2013-08-13 06:35:00,
2013-08-13 01:40:00,67.7,65.6,30.10,NNW,348,1.0,2.0,93,0.00,CLR,,0.00,WeatherDisplay:10.37,2013-08-13 06:40:00,
2013-08-13 01:45:00,67.5,65.4,30.10,NNW,344,0.0,0.0,93,0.00,CLR,,0.00,WeatherDisplay:10.37,2013-08-13 06:45:00,
2013-08-13 01:50:00,67.3,65.2,30.10,North,359,0.0,0.0,93,0.00,CLR,,0.00,WeatherDisplay:10.37,2013-08-13 06:50:00,
2013-08-13 01:55:00,67.1,65.0,30.10,North,0,0.0,0.0,93,0.00,CLR,,0.00,WeatherDisplay:10.37,2013-08-13 06:55:00,
2013-08-13 02:00:00,66.9,65.7,30.10,North,0,0.0,1.0,96,0.00,CLR,,0.00,WeatherDisplay:10.37,2013-08-13 07:00:00,
2013-08-13 02:05:00,66.9,65.7,30.10,North,0,0.0,1.0,96,0.00,CLR,,0.00,WeatherDisplay:10.37,2013-08-13 07:05:00,
2013-08-13 02:10:00,66.9,65.7,30.10,North,0,0.0,1.0,96,0.00,CLR,,0.00,WeatherDisplay:10.37,2013-08-13 07:10:00,
2013-08-13 02:15:00,66.4,65.2,30.10,North,0,2.0,4.0,96,0.00,CLR,,0.00,WeatherDisplay:10.37,2013-08-13 07:15:00,
2013-08-13 02:20:00,66.4,65.2,30.10,NNW,345,0.0,4.0,96,0.00,CLR,,0.00,WeatherDisplay:10.37,2013-08-13 07:20:00,
2013-08-13 02:25:00,65.9,64.8,30.10,NNW,340,0.0,0.0,96,0.00,CLR,,0.00,WeatherDisplay:10.37,2013-08-13 07:25:00,
2013-08-13 02:30:00,65.7,64.5,30.09,NNE,24,0.0,0.0,96,0.00,CLR,,0.00,WeatherDisplay:10.37,2013-08-13 07:30:00,
2013-08-13 02:35:00,65.3,64.1,30.09,NNE,29,0.0,0.0,96,0.00,CLR,,0.00,WeatherDisplay:10.37,2013-08-13 07:35:00,
2013-08-13 02:45:00,65.0,63.8,30.10,NNE,13,0.0,2.0,96,0.00,CLR,,0.00,WeatherDisplay:10.37,2013-08-13 07:45:00,
2013-08-13 02:55:00,64.8,63.6,30.10,North,10,0.0,0.0,96,0.00,CLR,,0.00,WeatherDisplay:10.37,2013-08-13 07:55:00,
2013-08-13 03:00:00,64.2,63.1,30.10,NNE,20,0.0,0.0,96,0.00,CLR,,0.00,WeatherDisplay:10.37,2013-08-13 08:00:00,
2013-08-13 03:05:00,64.0,62.9,30.10,NE,43,0.0,0.0,96,0.00,CLR,,0.00,WeatherDisplay:10.37,2013-08-13 08:05:00,
2013-08-13 03:10:00,64.0,62.9,30.10,NNE,22,0.0,0.0,96,0.00,CLR,,0.00,WeatherDisplay:10.37,2013-08-13 08:10:00,
2013-08-13 03:15:00,64.0,62.9,30.10,North,356,5.0,5.0,96,0.00,CLR,,0.00,WeatherDisplay:10.37,2013-08-13 08:15:00,
2013-08-13 03:20:00,64.0,62.9,30.11,NNE,21,0.0,5.0,96,0.00,CLR,,0.00,WeatherDisplay:10.37,2013-08-13 08:20:00,
2013-08-13 03:25:00,64.0,62.9,30.11,North,11,0.0,3.0,96,0.00,CLR,,0.00,WeatherDisplay:10.37,2013-08-13 08:25:00,
2013-08-13 03:30:00,63.9,62.7,30.11,NNW,343,1.0,2.0,96,0.00,CLR,,0.00,WeatherDisplay:10.37,2013-08-13 08:30:00,
2013-08-13 03:35:00,63.7,62.5,30.11,NNW,343,3.0,3.0,96,0.00,CLR,,0.00,WeatherDisplay:10.37,2013-08-13 08:35:00,
2013-08-13 03:40:00,63.5,62.3,30.11,North,349,0.0,0.0,96,0.00,CLR,,0.00,WeatherDisplay:10.37,2013-08-13 08:40:00,
2013-08-13 03:45:00,63.5,62.3,30.12,North,350,0.0,0.0,96,0.00,CLR,,0.00,WeatherDisplay:10.37,2013-08-13 08:45:00,
2013-08-13 03:50:00,63.3,62.2,30.11,NNE,16,0.0,1.0,96,0.00,CLR,,0.00,WeatherDisplay:10.37,2013-08-13 08:50:00,
2013-08-13 03:55:00,63.2,62.0,30.12,NNE,21,1.0,3.0,96,0.00,CLR,,0.00,WeatherDisplay:10.37,2013-08-13 08:55:00,
2013-08-13 04:00:00,63.0,61.8,30.13,North,10,0.0,3.0,96,0.00,CLR,,0.00,WeatherDisplay:10.37,2013-08-13 09:00:00,
2013-08-13 04:05:00,63.0,61.8,30.12,North,4,0.0,0.0,96,0.00,CLR,,0.00,WeatherDisplay:10.37,2013-08-13 09:05:00,
2013-08-13 04:10:00,62.8,61.6,30.12,North,358,0.0,2.0,96,0.00,CLR,,0.00,WeatherDisplay:10.37,2013-08-13 09:10:00,
2013-08-13 04:15:00,62.8,61.6,30.12,North,351,0.0,2.0,96,0.00,CLR,,0.00,WeatherDisplay:10.37,2013-08-13 09:15:00,
2013-08-13 04:20:00,62.8,61.6,30.12,North,357,0.0,0.0,96,0.00,CLR,,0.00,WeatherDisplay:10.37,2013-08-13 09:20:00,
2013-08-13 04:25:00,62.4,61.3,30.12,North,5,0.0,0.0,96,0.00,CLR,,0.00,WeatherDisplay:10.37,2013-08-13 09:25:00,
2013-08-13 04:30:00,62.2,61.1,30.12,North,357,0.0,1.0,96,0.00,CLR,,0.00,WeatherDisplay:10.37,2013-08-13 09:30:00,
2013-08-13 04:35:00,62.1,60.9,30.12,North,7,0.0,0.0,96,0.00,CLR,,0.00,WeatherDisplay:10.37,2013-08-13 09:35:00,
2013-08-13 04:40:00,61.7,60.5,30.12,North,9,0.0,0.0,96,0.00,CLR,,0.00,WeatherDisplay:10.37,2013-08-13 09:40:00,
2013-08-13 04:45:00,61.7,60.5,30.13,North,10,2.0,2.0,96,0.00,CLR,,0.00,WeatherDisplay:10.37,2013-08-13 09:45:00,
2013-08-13 04:50:00,61.6,60.5,30.13,North,5,1.0,2.0,96,0.00,CLR,,0.00,WeatherDisplay:10.37,2013-08-13 09:50:00,
2013-08-13 04:55:00,61.3,60.2,30.13,North,11,0.0,0.0,96,0.00,CLR,,0.00,WeatherDisplay:10.37,2013-08-13 09:55:00,
2013-08-13 05:00:00,61.3,59.3,30.13,North,358,0.0,0.0,93,0.00,CLR,,0.00,WeatherDisplay:10.37,2013-08-13 10:00:00,
2013-08-13 05:05:00,61.2,59.1,30.13,NNE,20,0.0,4.0,93,0.00,CLR,,0.00,WeatherDisplay:10.37,2013-08-13 10:05:00,
2013-08-13 05:10:00,61.0,58.9,30.13,NE,41,0.0,0.0,93,0.00,CLR,,0.00,WeatherDisplay:10.37,2013-08-13 10:10:00,
2013-08-13 05:15:00,61.0,58.6,30.14,North,4,1.0,2.0,92,0.00,CLR,,0.00,WeatherDisplay:10.37,2013-08-13 10:15:00,
2013-08-13 05:20:00,61.0,58.6,30.14,North,352,0.0,2.0,92,0.00,CLR,,0.00,WeatherDisplay:10.37,2013-08-13 10:20:00,
2013-08-13 05:25:00,60.8,58.2,30.14,NNW,344,0.0,0.0,91,0.00,CLR,,0.00,WeatherDisplay:10.37,2013-08-13 10:25:00,
2013-08-13 05:30:00,60.6,57.7,30.14,NNW,339,0.0,0.0,90,0.00,CLR,,0.00,WeatherDisplay:10.37,2013-08-13 10:30:00,
2013-08-13 05:35:00,60.4,57.5,30.14,NNW,342,0.0,1.0,90,0.00,CLR,,0.00,WeatherDisplay:10.37,2013-08-13 10:35:00,
2013-08-13 05:40:00,60.4,57.2,30.14,NNW,344,0.0,0.0,89,0.00,CLR,,0.00,WeatherDisplay:10.37,2013-08-13 10:40:00,
2013-08-13 05:45:00,60.3,57.0,30.14,NNW,343,1.0,3.0,89,0.00,CLR,,0.00,WeatherDisplay:10.37,2013-08-13 10:45:00,
2013-08-13 05:50:00,60.3,57.0,30.14,North,11,0.0,3.0,89,0.00,CLR,,0.00,WeatherDisplay:10.37,2013-08-13 10:50:00,
2013-08-13 05:55:00,60.3,57.0,30.15,North,2,2.0,4.0,89,0.00,CLR,,0.00,WeatherDisplay:10.37,2013-08-13 10:55:00,
2013-08-13 06:00:00,60.1,56.5,30.15,North,352,0.0,0.0,88,0.00,CLR,,0.00,WeatherDisplay:10.37,2013-08-13 11:00:00,
2013-08-13 06:05:00,60.0,56.4,30.15,North,350,0.0,3.0,88,0.00,CLR,,0.00,WeatherDisplay:10.37,2013-08-13 11:05:00,
2013-08-13 06:10:00,60.1,56.5,30.15,North,350,0.0,0.0,88,0.00,CLR,,0.00,WeatherDisplay:10.37,2013-08-13 11:10:00,
2013-08-13 06:15:00,59.9,56.3,30.15,North,349,1.0,1.0,88,0.00,CLR,,0.00,WeatherDisplay:10.37,2013-08-13 11:15:00,
2013-08-13 06:20:00,60.1,56.8,30.16,North,352,0.0,1.0,89,0.00,CLR,,0.00,WeatherDisplay:10.37,2013-08-13 11:20:00,
2013-08-13 06:25:00,60.3,57.0,30.16,North,0,0.0,0.0,89,0.00,CLR,,0.00,WeatherDisplay:10.37,2013-08-13 11:25:00,
2013-08-13 06:30:00,60.6,57.4,30.17,North,0,0.0,1.0,89,0.00,CLR,,0.00,WeatherDisplay:10.37,2013-08-13 11:30:00,
2013-08-13 06:40:00,61.3,58.1,30.17,North,6,0.0,3.0,89,0.00,CLR,,0.00,WeatherDisplay:10.37,2013-08-13 11:40:00,
2013-08-13 06:45:00,61.7,58.1,30.18,North,2,0.0,0.0,88,0.00,CLR,,0.00,WeatherDisplay:10.37,2013-08-13 11:45:00,
2013-08-13 06:50:00,61.9,58.0,30.18,NNE,15,2.0,6.0,87,0.00,CLR,,0.00,WeatherDisplay:10.37,2013-08-13 11:50:00,
2013-08-13 06:55:00,62.1,57.8,30.19,NNE,24,2.0,6.0,86,0.00,CLR,,0.00,WeatherDisplay:10.37,2013-08-13 11:55:00,
2013-08-13 07:00:00,62.1,57.5,30.19,NNE,29,0.0,1.0,85,0.00,CLR,,0.00,WeatherDisplay:10.37,2013-08-13 12:00:00,
2013-08-13 07:05:00,62.2,57.3,30.19,NNE,20,0.0,1.0,84,0.00,CLR,,0.00,WeatherDisplay:10.37,2013-08-13 12:05:00,
2013-08-13 07:10:00,62.2,57.0,30.19,NNE,14,2.0,4.0,83,0.00,CLR,,0.00,WeatherDisplay:10.37,2013-08-13 12:10:00,
2013-08-13 07:15:00,62.8,57.6,30.18,North,360,0.0,2.0,83,0.00,CLR,,0.00,WeatherDisplay:10.37,2013-08-13 12:15:00,
2013-08-13 07:20:00,63.3,57.7,30.18,NNW,338,0.0,1.0,82,0.00,CLR,,0.00,WeatherDisplay:10.37,2013-08-13 12:20:00,
2013-08-13 07:25:00,63.5,57.6,30.18,North,351,0.0,0.0,81,0.00,CLR,,0.00,WeatherDisplay:10.37,2013-08-13 12:25:00,
2013-08-13 07:30:00,63.7,57.4,30.19,North,5,0.0,1.0,80,0.00,CLR,,0.00,WeatherDisplay:10.37,2013-08-13 12:30:00,
2013-08-13 07:35:00,63.8,57.2,30.19,NNE,22,0.0,3.0,79,0.00,CLR,,0.00,WeatherDisplay:10.37,2013-08-13 12:35:00,
2013-08-13 07:40:00,63.7,56.7,30.19,NNE,23,0.0,3.0,78,0.00,CLR,,0.00,WeatherDisplay:10.37,2013-08-13 12:40:00,
2013-08-13 07:45:00,63.7,56.7,30.18,NNE,25,0.0,0.0,78,0.00,CLR,,0.00,WeatherDisplay:10.37,2013-08-13 12:45:00,
2013-08-13 07:50:00,63.9,56.9,30.18,NE,41,1.0,3.0,78,0.00,CLR,,0.00,WeatherDisplay:10.37,2013-08-13 12:50:00,
2013-08-13 07:55:00,63.9,56.9,30.19,ENE,61,1.0,3.0,78,0.00,CLR,,0.00,WeatherDisplay:10.37,2013-08-13 12:55:00,
2013-08-13 08:00:00,63.9,56.9,30.18,NE,47,0.0,0.0,78,0.00,CLR,,0.00,WeatherDisplay:10.37,2013-08-13 13:00:00,
2013-08-13 08:05:00,63.9,56.9,30.19,North,4,0.0,4.0,78,0.00,CLR,,0.00,WeatherDisplay:10.37,2013-08-13 13:05:00,
2013-08-13 08:10:00,63.9,56.9,30.19,NW,326,0.0,4.0,78,0.00,CLR,,0.00,WeatherDisplay:10.37,2013-08-13 13:10:00,
2013-08-13 08:15:00,65.7,57.9,30.19,NNW,343,0.0,4.0,76,0.00,CLR,,0.00,WeatherDisplay:10.37,2013-08-13 13:15:00,
2013-08-13 08:20:00,66.4,57.5,30.19,NNE,30,0.0,0.0,73,0.00,CLR,,0.00,WeatherDisplay:10.37,2013-08-13 13:20:00,
2013-08-13 08:25:00,66.4,57.1,30.19,ENE,77,1.0,6.0,72,0.00,CLR,,0.00,WeatherDisplay:10.37,2013-08-13 13:25:00,
2013-08-13 08:30:00,67.0,57.3,30.19,ENE,60,1.0,2.0,71,0.00,CLR,,0.00,WeatherDisplay:10.37,2013-08-13 13:30:00,
2013-08-13 08:35:00,66.7,56.2,30.19,NNW,328,0.0,2.0,69,0.00,CLR,,0.00,WeatherDisplay:10.37,2013-08-13 13:35:00,
2013-08-13 08:40:00,66.4,55.9,30.20,NNW,342,0.0,0.0,69,0.00,CLR,,0.00,WeatherDisplay:10.37,2013-08-13 13:40:00,
2013-08-13 08:50:00,65.7,55.2,30.21,NE,52,0.0,2.0,69,0.00,CLR,,0.00,WeatherDisplay:10.37,2013-08-13 13:50:00,
2013-08-13 09:00:00,66.0,55.6,30.22,WNW,294,0.0,0.0,69,0.00,CLR,,0.00,WeatherDisplay:10.37,2013-08-13 14:00:00,
2013-08-13 09:05:00,66.2,55.7,30.22,West,277,1.0,1.0,69,0.00,CLR,,0.00,WeatherDisplay:10.37,2013-08-13 14:05:00,
2013-08-13 09:15:00,67.5,56.9,30.22,North,0,0.0,0.0,69,0.00,CLR,,0.00,WeatherDisplay:10.37,2013-08-13 14:15:00,
2013-08-13 09:20:00,68.9,57.5,30.22,North,4,0.0,1.0,67,0.00,CLR,,0.00,WeatherDisplay:10.37,2013-08-13 14:20:00,
2013-08-13 09:25:00,69.4,58.0,30.22,North,350,0.0,1.0,67,0.00,CLR,,0.00,WeatherDisplay:10.37,2013-08-13 14:25:00,
2013-08-13 09:35:00,69.8,55.3,30.23,WNW,302,2.0,2.0,60,0.00,CLR,,0.00,WeatherDisplay:10.37,2013-08-13 14:35:00,
2013-08-13 09:40:00,69.6,54.6,30.23,NNE,19,0.0,2.0,59,0.00,CLR,,0.00,WeatherDisplay:10.37,2013-08-13 14:40:00,
2013-08-13 09:45:00,69.3,54.3,30.23,NE,54,0.0,0.0,59,0.00,CLR,,0.00,WeatherDisplay:10.37,2013-08-13 14:45:00,
2013-08-13 09:50:00,69.4,54.5,30.23,NE,38,2.0,2.0,59,0.00,CLR,,0.00,WeatherDisplay:10.37,2013-08-13 14:50:00,
2013-08-13 09:55:00,70.2,55.6,30.22,North,10,2.0,2.0,60,0.00,CLR,,0.00,WeatherDisplay:10.37,2013-08-13 14:55:00,
2013-08-13 10:00:00,71.2,55.2,30.23,NNE,14,1.0,2.0,57,0.00,CLR,,0.00,WeatherDisplay:10.37,2013-08-13 15:00:00,
2013-08-13 10:05:00,71.1,53.6,30.23,North,1,0.0,2.0,54,0.00,CLR,,0.00,WeatherDisplay:10.37,2013-08-13 15:05:00,
2013-08-13 10:10:00,70.2,52.7,30.23,North,1,0.0,5.0,54,0.00,CLR,,0.00,WeatherDisplay:10.37,2013-08-13 15:10:00,
2013-08-13 10:20:00,70.7,54.7,30.23,NNW,339,0.0,2.0,57,0.00,CLR,,0.00,WeatherDisplay:10.37,2013-08-13 15:20:00,
2013-08-13 10:25:00,71.0,54.5,30.23,NE,34,0.0,1.0,56,0.00,CLR,,0.00,WeatherDisplay:10.37,2013-08-13 15:25:00,
2013-08-13 10:30:00,70.5,53.1,30.23,East,101,0.0,0.0,54,0.00,CLR,,0.00,WeatherDisplay:10.37,2013-08-13 15:30:00,
2013-08-13 10:35:00,70.5,53.6,30.24,SE,137,0.0,0.0,55,0.00,CLR,,0.00,WeatherDisplay:10.37,2013-08-13 15:35:00,
2013-08-13 10:45:00,70.5,52.0,30.24,NE,41,1.0,2.0,52,0.00,CLR,,0.00,WeatherDisplay:10.37,2013-08-13 15:45:00,
2013-08-13 10:50:00,70.2,52.7,30.24,NE,53,0.0,0.0,54,0.00,CLR,,0.00,WeatherDisplay:10.37,2013-08-13 15:50:00,
2013-08-13 10:54:00,70.5,52.6,30.24,NNE,12,0.0,4.0,53,0.00,CLR,,0.00,WeatherDisplay:10.37,2013-08-13 15:54:00,
2013-08-13 11:00:00,71.8,53.7,30.24,NNE,19,2.0,5.0,53,0.00,CLR,,0.00,WeatherDisplay:10.37,2013-08-13 16:00:00,
2013-08-13 11:04:00,71.1,51.5,30.24,NNE,20,0.0,0.0,50,0.00,CLR,,0.00,WeatherDisplay:10.37,2013-08-13 16:04:00,
2013-08-13 11:10:00,70.5,51.5,30.25,NE,39,0.0,2.0,51,0.00,CLR,,0.00,WeatherDisplay:10.37,2013-08-13 16:10:00,
2013-08-13 11:14:00,70.9,51.8,30.25,NNE,29,2.0,2.0,51,0.00,CLR,,0.00,WeatherDisplay:10.37,2013-08-13 16:14:00,
2013-08-13 11:20:00,72.0,52.3,30.25,NNW,327,0.0,2.0,50,0.00,CLR,,0.00,WeatherDisplay:10.37,2013-08-13 16:20:00,
2013-08-13 11:24:00,72.7,52.4,30.25,NNW,348,0.0,0.0,49,0.00,CLR,,0.00,WeatherDisplay:10.37,2013-08-13 16:24:00,
2013-08-13 11:29:00,72.1,51.8,30.25,NE,43,1.0,3.0,49,0.00,CLR,,0.00,WeatherDisplay:10.37,2013-08-13 16:29:00,
2013-08-13 11:34:00,72.1,51.9,30.25,NNE,31,2.0,3.0,49,0.00,CLR,,0.00,WeatherDisplay:10.37,2013-08-13 16:34:00,
2013-08-13 11:39:00,72.2,50.8,30.26,North,1,0.0,2.0,47,0.00,CLR,,0.00,WeatherDisplay:10.37,2013-08-13 16:39:00,
2013-08-13 11:44:00,72.5,51.1,30.26,NNE,23,0.0,1.0,47,0.00,CLR,,0.00,WeatherDisplay:10.37,2013-08-13 16:44:00,
2013-08-13 11:49:00,72.5,49.9,30.26,NE,49,0.0,1.0,45,0.00,CLR,,0.00,WeatherDisplay:10.37,2013-08-13 16:49:00,
2013-08-13 11:54:00,72.5,49.9,30.26,NE,52,1.0,3.0,45,0.00,CLR,,0.00,WeatherDisplay:10.37,2013-08-13 16:54:00,
2013-08-13 11:59:00,73.0,51.0,30.26,ENE,57,0.0,2.0,46,0.00,CLR,,0.00,WeatherDisplay:10.37,2013-08-13 16:59:00,
2013-08-13 12:04:00,73.4,50.2,30.26,NNE,29,2.0,2.0,44,0.00,CLR,,0.00,WeatherDisplay:10.37,2013-08-13 17:04:00,
2013-08-13 12:14:00,75.4,50.0,30.26,NW,322,0.0,2.0,41,0.00,CLR,,0.00,WeatherDisplay:10.37,2013-08-13 17:14:00,
2013-08-13 12:19:00,74.1,48.2,30.26,North,357,0.0,0.0,40,0.00,CLR,,0.00,WeatherDisplay:10.37,2013-08-13 17:19:00,
2013-08-13 12:24:00,72.9,48.5,30.26,NNE,19,2.0,3.0,42,0.00,CLR,,0.00,WeatherDisplay:10.37,2013-08-13 17:24:00,
2013-08-13 12:29:00,72.3,49.2,30.26,NNE,28,0.0,3.0,44,0.00,CLR,,0.00,WeatherDisplay:10.37,2013-08-13 17:29:00,
2013-08-13 12:35:00,72.5,49.3,30.26,NNE,12,2.0,2.0,44,0.00,CLR,,0.00,WeatherDisplay:10.37,2013-08-13 17:35:00,
2013-08-13 12:40:00,73.4,50.8,30.26,NNW,344,0.0,2.0,45,0.00,CLR,,0.00,WeatherDisplay:10.37,2013-08-13 17:40:00,
2013-08-13 12:45:00,74.2,50.3,30.26,NNW,339,1.0,1.0,43,0.00,CLR,,0.00,WeatherDisplay:10.37,2013-08-13 17:45:00,
2013-08-13 12:50:00,75.0,49.7,30.26,NNW,347,2.0,7.0,41,0.00,CLR,,0.00,WeatherDisplay:10.37,2013-08-13 17:50:00,
2013-08-13 12:55:00,74.8,49.6,30.26,NNW,334,6.0,7.0,41,0.00,CLR,,0.00,WeatherDisplay:10.37,2013-08-13 17:55:00,
2013-08-13 13:00:00,75.0,50.4,30.26,NNW,336,1.0,2.0,42,0.00,CLR,,0.00,WeatherDisplay:10.37,2013-08-13 18:00:00,
2013-08-13 13:05:00,75.2,49.2,30.26,North,360,2.0,2.0,40,0.00,CLR,,0.00,WeatherDisplay:10.37,2013-08-13 18:05:00,
2013-08-13 13:10:00,75.6,50.2,30.26,NNE,27,0.0,0.0,41,0.00,CLR,,0.00,WeatherDisplay:10.37,2013-08-13 18:10:00,
2013-08-13 13:15:00,76.5,50.3,30.26,NE,42,2.0,3.0,40,0.00,CLR,,0.00,WeatherDisplay:10.37,2013-08-13 18:15:00,
2013-08-13 13:20:00,75.9,48.5,30.27,NNE,26,3.0,6.0,38,0.00,CLR,,0.00,WeatherDisplay:10.37,2013-08-13 18:20:00,
2013-08-13 13:25:00,74.7,48.1,30.27,NNE,19,0.0,2.0,39,0.00,CLR,,0.00,WeatherDisplay:10.37,2013-08-13 18:25:00,
2013-08-13 13:30:00,75.7,50.3,30.27,NE,48,2.0,3.0,41,0.00,CLR,,0.00,WeatherDisplay:10.37,2013-08-13 18:30:00,
2013-08-13 13:35:00,77.9,49.5,30.27,NE,41,3.0,5.0,37,0.00,CLR,,0.00,WeatherDisplay:10.37,2013-08-13 18:35:00,
2013-08-13 13:40:00,79.3,50.8,30.27,NE,39,3.0,4.0,37,0.00,CLR,,0.00,WeatherDisplay:10.37,2013-08-13 18:40:00,
2013-08-13 13:50:00,79.4,47.8,30.27,West,268,1.0,2.0,33,0.00,CLR,,0.00,WeatherDisplay:10.37,2013-08-13 18:50:00,
2013-08-13 13:55:00,78.4,47.7,30.27,NW,310,1.0,1.0,34,0.00,CLR,,0.00,WeatherDisplay:10.37,2013-08-13 18:55:00,
2013-08-13 14:00:00,79.8,50.4,30.26,NE,43,0.0,3.0,36,0.00,CLR,,0.00,WeatherDisplay:10.37,2013-08-13 19:00:00,
2013-08-13 14:05:00,79.2,49.9,30.26,NNE,32,0.0,3.0,36,0.00,CLR,,0.00,WeatherDisplay:10.37,2013-08-13 19:05:00,
2013-08-13 14:10:00,79.2,49.9,30.26,NNE,24,0.0,2.0,36,0.00,CLR,,0.00,WeatherDisplay:10.37,2013-08-13 19:10:00,
2013-08-13 14:15:00,79.2,49.1,30.26,North,359,1.0,2.0,35,0.00,CLR,,0.00,WeatherDisplay:10.37,2013-08-13 19:15:00,
2013-08-13 14:20:00,77.3,48.3,30.26,North,351,1.0,5.0,36,0.00,CLR,,0.00,WeatherDisplay:10.37,2013-08-13 19:20:00,
2013-08-13 14:25:00,77.2,49.6,30.26,North,0,3.0,5.0,38,0.00,CLR,,0.00,WeatherDisplay:10.37,2013-08-13 19:25:00,
2013-08-13 14:30:00,78.0,48.9,30.26,NNW,330,0.0,3.0,36,0.00,CLR,,0.00,WeatherDisplay:10.37,2013-08-13 19:30:00,
2013-08-13 14:35:00,80.1,50.7,30.27,NNE,21,0.0,1.0,36,0.00,CLR,,0.00,WeatherDisplay:10.37,2013-08-13 19:35:00,
2013-08-13 14:40:00,78.7,47.9,30.27,North,10,3.0,5.0,34,0.00,CLR,,0.00,WeatherDisplay:10.37,2013-08-13 19:40:00,
2013-08-13 14:45:00,81.3,51.0,30.27,North,358,0.0,0.0,35,0.00,CLR,,0.00,WeatherDisplay:10.37,2013-08-13 19:45:00,